Location: Rioux
(40.7500°S, 175.7500°E)
Time: 11:09:08
(UTC+00:00)

Helios 1B rocket - Pass Details

Date: 12 June 2024
Orbit: 533 x 541 km, 98.2° (Epoch: 20 July)

Event Time Altitude Azimuth Distance (km) Brightness Sun altitude
Rises 17:42:38 0° 36° (NE) 2,699 6.6 -21.2°
Reaches altitude 10° 17:44:52 10° 46° (NE) 1,818 5.8 -20.8°
Maximum altitude 17:48:24 33° 110° (ESE) 949 4.0 -20.1°
Drops below altitude 10° 17:51:59 10° 174° (S) 1,850 4.9 -19.5°
Enters shadow 17:53:23 - 180° (S) 2,392 5.4 -19.2°
